| time (UTC) | temp F | wind direction | speed MPH | gust MPH | rain 1hr in | rain 24hr in | rain mn in | humidity % | barometer mb |
| 20260904102026 | 62 | 220 | 2.0 | 6.0 | 0.00 | 0.00 | 0.00 | 66 | 999.3 |
| 20260904101021 | 62 | 177 | 1.0 | 3.0 | 0.00 | 0.00 | 0.00 | 66 | 999.6 |
| 20260904100017 | 61 | 272 | 2.0 | 3.0 | 0.00 | 0.00 | 0.00 | 66 | 999.7 |
| 20260904095032 | 61 | 140 | 1.0 | 3.0 | 0.00 | 0.00 | 0.00 | 66 | 999.8 |
| 20260904094028 | 60 | 148 | 1.0 | 2.0 | 0.00 | 0.00 | 0.00 | 68 | 999.7 |
| 20260904093023 | 61 | 150 | 1.0 | 3.0 | 0.00 | 0.00 | 0.00 | 68 | 999.8 |
| 20260904092038 | 61 | 182 | 1.0 | 2.0 | 0.00 | 0.00 | 0.00 | 67 | 999.9 |
| 20260904091114 | 62 | 0.0 | 0.0 | 0.00 | 0.00 | 0.00 | 67 | 999.9 | |
| 20260904090049 | 61 | 130 | 0.0 | 1.0 | 0.00 | 0.00 | 0.00 | 69 | 1000.0 |
| 20260904085024 | 59 | 0.0 | 0.0 | 0.00 | 0.00 | 0.00 | 72 | 1000.0 | |
| 20260904084059 | 59 | 232 | 0.0 | 1.0 | 0.00 | 0.00 | 0.00 | 72 | 1000.2 |
| 20260904083035 | 60 | 207 | 0.0 | 1.0 | 0.00 | 0.00 | 0.00 | 73 | 1000.0 |
| 20260904082029 | 59 | 184 | 0.0 | 1.0 | 0.00 | 0.00 | 0.00 | 74 | 1000.1 |
| 20260904081026 | 57 | 0.0 | 0.0 | 0.00 | 0.00 | 0.00 | 77 | 1000.3 | |
| 20260904080021 | 58 | 245 | 0.0 | 2.0 | 0.00 | 0.00 | 0.00 | 75 | 1000.5 |
| 20260904075036 | 57 | 0.0 | 0.0 | 0.00 | 0.00 | 0.00 | 76 | 1000.5 | |
| 20260904074031 | 55 | 251 | 0.0 | 2.0 | 0.00 | 0.00 | 0.00 | 80 | 1000.5 |
| 20260904073106 | 55 | 0.0 | 0.0 | 0.00 | 0.00 | 0.00 | 79 | 1000.6 | |
| 20260904072042 | 54 | 261 | 0.0 | 1.0 | 0.00 | 0.00 | 0.00 | 80 | 1000.6 |
| 20260904071017 | 54 | 0.0 | 0.0 | 0.00 | 0.00 | 0.00 | 81 | 1000.7 | |
| 20260904070033 | 53 | 0.0 | 0.0 | 0.00 | 0.00 | 0.00 | 83 | 1000.9 | |
| 20260904065049 | 51 | 0.0 | 0.0 | 0.00 | 0.00 | 0.00 | 85 | 1000.7 | |
| 20260904064023 | 50 | 250 | 0.0 | 1.0 | 0.00 | 0.00 | 0.00 | 87 | 1000.8 |
| 20260904063043 | 48 | 0.0 | 0.0 | 0.00 | 0.00 | 0.00 | 91 | 1000.8 | |
| 20260904062033 | 48 | 214 | 0.0 | 1.0 | 0.00 | 0.00 | 0.00 | 89 | 1000.8 |
| 20260904061048 | 47 | 0.0 | 0.0 | 0.00 | 0.00 | 0.00 | 91 | 1000.8 | |
| 20260904060023 | 46 | 0.0 | 0.0 | 0.00 | 0.00 | 0.00 | 93 | 1000.6 | |
| 20260904055020 | 45 | 0.0 | 0.0 | 0.00 | 0.00 | 0.00 | 93 | 1000.7 | |
| 20260904054016 | 44 | 252 | 0.0 | 3.0 | 0.00 | 0.00 | 0.00 | 95 | 1000.9 |
| 20260904053032 | 43 | 239 | 0.0 | 1.0 | 0.00 | 0.00 | 0.00 | 98 | 1001.0 |
| 20260904052027 | 43 | 0.0 | 0.0 | 0.00 | 0.00 | 0.00 | 99 | 1001.1 | |
| 20260904051023 | 42 | 0.0 | 0.0 | 0.00 | 0.00 | 0.00 | 99 | 1001.0 | |
| 20260904050038 | 41 | 0.0 | 0.0 | 0.00 | 0.00 | 0.00 | 99 | 1001.0 | |
| 20260904045135 | 42 | 0.0 | 0.0 | 0.00 | 0.00 | 0.00 | 99 | 1000.9 | |
| 20260904044030 | 39 | 0.0 | 0.0 | 0.00 | 0.00 | 0.00 | 99 | 1001.0 | |
| 20260904043025 | 39 | 0.0 | 0.0 | 0.00 | 0.00 | 0.00 | 99 | 1001.1 | |
| 20260904042020 | 37 | 0.0 | 0.0 | 0.00 | 0.00 | 0.00 | 99 | 1000.9 | |
| 20260904041016 | 38 | 0.0 | 0.0 | 0.00 | 0.00 | 0.00 | 99 | 1001.1 | |
| 20260904040031 | 39 | 0.0 | 0.0 | 0.00 | 0.00 | 0.00 | 99 | 1001.1 | |
| 20260904035026 | 40 | 0.0 | 0.0 | 0.00 | 0.00 | 0.00 | 99 | 1001.2 | |
| 20260904034041 | 41 | 0.0 | 0.0 | 0.00 | 0.00 | 0.00 | 99 | 1001.2 | |
| 20260904033017 | 41 | 0.0 | 0.0 | 0.00 | 0.00 | 0.00 | 99 | 1001.2 | |
| 20260904032032 | 41 | 225 | 0.0 | 1.0 | 0.00 | 0.00 | 0.00 | 99 | 1001.1 |
| 20260904031027 | 41 | 0.0 | 0.0 | 0.00 | 0.00 | 0.00 | 99 | 1001.2 | |
| 20260904030023 | 41 | 237 | 0.0 | 1.0 | 0.00 | 0.00 | 0.00 | 99 | 1001.5 |
| 20260904025019 | 41 | 0.0 | 0.0 | 0.00 | 0.00 | 0.00 | 99 | 1001.5 | |
| 20260904024054 | 41 | 0.0 | 0.0 | 0.00 | 0.00 | 0.00 | 99 | 1001.5 | |
| 20260904023029 | 41 | 0.0 | 0.0 | 0.00 | 0.00 | 0.00 | 99 | 1001.6 | |
| 20260904022025 | 39 | 0.0 | 0.0 | 0.00 | 0.00 | 0.00 | 99 | 1001.6 | |
| 20260904021021 | 39 | 0.0 | 0.0 | 0.00 | 0.00 | 0.00 | 99 | 1001.7 | |
| 20260904020016 | 40 | 0.0 | 0.0 | 0.00 | 0.00 | 0.00 | 99 | 1001.7 | |
| 20260904015032 | 42 | 0.0 | 0.0 | 0.00 | 0.00 | 0.00 | 99 | 1001.7 | |
| 20260904014026 | 41 | 0.0 | 0.0 | 0.00 | 0.00 | 0.00 | 99 | 1001.9 | |
| 20260904013042 | 41 | 0.0 | 0.0 | 0.00 | 0.00 | 0.00 | 99 | 1001.9 | |
| 20260904012057 | 41 | 0.0 | 0.0 | 0.00 | 0.00 | 0.00 | 99 | 1002.0 | |
| 20260904011033 | 42 | 0.0 | 0.0 | 0.00 | 0.00 | 0.00 | 99 | 1002.0 | |
| 20260904010028 | 42 | 0.0 | 0.0 | 0.00 | 0.00 | 0.00 | 99 | 1002.2 | |
| 20260904005023 | 43 | 0.0 | 0.0 | 0.00 | 0.00 | 0.00 | 99 | 1002.2 | |
| 20260904004039 | 41 | 0.0 | 0.0 | 0.00 | 0.00 | 0.00 | 99 | 1002.5 | |
| 20260904003035 | 41 | 0.0 | 0.0 | 0.00 | 0.00 | 0.00 | 99 | 1002.3 | |
| 20260904002031 | 41 | 0.0 | 0.0 | 0.00 | 0.00 | 0.00 | 99 | 1002.4 | |
| 20260904001026 | 42 | 0.0 | 0.0 | 0.00 | 0.00 | 0.00 | 99 | 1002.5 | |
| 20260904000021 | 43 | 0.0 | 0.0 | 0.00 | 0.00 | 0.00 | 99 | 1002.3 | |
| 20260903235016 | 44 | 0.0 | 0.0 | 0.00 | 0.00 | 0.00 | 99 | 1002.6 | |
| 20260903234032 | 43 | 0.0 | 0.0 | 0.00 | 0.00 | 0.00 | 99 | 1002.5 | |
| 20260903233027 | 44 | 0.0 | 0.0 | 0.00 | 0.00 | 0.00 | 99 | 1002.7 | |
| 20260903232023 | 44 | 0.0 | 0.0 | 0.00 | 0.00 | 0.00 | 98 | 1002.8 | |
| 20260903231018 | 45 | 0.0 | 0.0 | 0.00 | 0.00 | 0.00 | 98 | 1002.7 | |
| 20260903230033 | 45 | 0.0 | 0.0 | 0.00 | 0.00 | 0.00 | 98 | 1002.7 | |
| 20260903225029 | 45 | 0.0 | 0.0 | 0.00 | 0.00 | 0.00 | 98 | 1002.8 | |
| 20260903224023 | 46 | 0.0 | 0.0 | 0.00 | 0.00 | 0.00 | 98 | 1003.0 | |
| 20260903223019 | 44 | 0.0 | 0.0 | 0.00 | 0.00 | 0.00 | 98 | 1003.0 | |
| 20260903222034 | 44 | 0.0 | 0.0 | 0.00 | 0.00 | 0.00 | 99 | 1003.1 | |
| 20260903221030 | 43 | 0.0 | 0.0 | 0.00 | 0.00 | 0.00 | 99 | 1003.1 | |
| 20260903220025 | 44 | 0.0 | 0.0 | 0.00 | 0.00 | 0.00 | 98 | 1003.1 | |
| 20260903215020 | 44 | 0.0 | 0.0 | 0.00 | 0.00 | 0.00 | 98 | 1003.2 | |
| 20260903214015 | 45 | 0.0 | 0.0 | 0.00 | 0.00 | 0.00 | 98 | 1003.1 | |
| 20260903213032 | 45 | 0.0 | 0.0 | 0.00 | 0.00 | 0.00 | 98 | 1002.9 | |
| 20260903212026 | 45 | 0.0 | 0.0 | 0.00 | 0.00 | 0.00 | 98 | 1002.9 | |
| 20260903211022 | 45 | 0.0 | 0.0 | 0.00 | 0.00 | 0.00 | 98 | 1003.0 | |
| 20260903210016 | 45 | 0.0 | 0.0 | 0.00 | 0.00 | 0.00 | 97 | 1002.9 | |
| 20260903205033 | 45 | 0.0 | 0.0 | 0.00 | 0.00 | 0.00 | 97 | 1003.1 | |
| 20260903204027 | 45 | 0.0 | 0.0 | 0.00 | 0.00 | 0.00 | 95 | 1003.0 | |
| 20260903203023 | 46 | 0.0 | 0.0 | 0.00 | 0.00 | 0.00 | 94 | 1003.0 | |
| 20260903202019 | 48 | 0.0 | 0.0 | 0.00 | 0.00 | 0.00 | 93 | 1003.1 | |
| 20260903201034 | 48 | 0.0 | 0.0 | 0.00 | 0.00 | 0.00 | 91 | 1003.2 | |
| 20260903200029 | 49 | 0.0 | 0.0 | 0.00 | 0.00 | 0.00 | 91 | 1003.2 | |
| 20260903195025 | 49 | 0.0 | 0.0 | 0.00 | 0.00 | 0.00 | 90 | 1003.4 | |
| 20260903194020 | 50 | 0.0 | 0.0 | 0.00 | 0.00 | 0.00 | 88 | 1003.5 | |
| 20260903193015 | 51 | 0.0 | 0.0 | 0.00 | 0.00 | 0.00 | 87 | 1003.5 | |
| 20260903192030 | 51 | 0.0 | 0.0 | 0.00 | 0.00 | 0.00 | 85 | 1003.3 | |
| 20260903191030 | 51 | 0.0 | 0.0 | 0.00 | 0.00 | 0.00 | 85 | 1003.3 | |
| 20260903190021 | 53 | 0.0 | 0.0 | 0.00 | 0.00 | 0.00 | 84 | 1003.3 | |
| 20260903185016 | 54 | 0.0 | 0.0 | 0.00 | 0.00 | 0.00 | 80 | 1003.3 | |
| 20260903184032 | 52 | 0.0 | 0.0 | 0.00 | 0.00 | 0.00 | 82 | 1003.2 | |
| 20260903183027 | 52 | 0.0 | 0.0 | 0.00 | 0.00 | 0.00 | 82 | 1003.2 | |
| 20260903182043 | 53 | 0.0 | 0.0 | 0.00 | 0.00 | 0.00 | 78 | 1003.4 | |
| 20260903181018 | 55 | 0.0 | 0.0 | 0.00 | 0.00 | 0.00 | 74 | 1003.4 | |
| 20260903180034 | 58 | 0.0 | 0.0 | 0.00 | 0.00 | 0.00 | 67 | 1003.5 | |
| 20260903175030 | 59 | 239 | 0.0 | 2.0 | 0.00 | 0.00 | 0.00 | 63 | 1003.6 |
| 20260903174024 | 58 | 0.0 | 0.0 | 0.00 | 0.00 | 0.00 | 70 | 1003.7 | |
| 20260903173020 | 59 | 0.0 | 0.0 | 0.00 | 0.00 | 0.00 | 71 | 1003.3 | |
| 20260903172034 | 61 | 0.0 | 0.0 | 0.00 | 0.00 | 0.00 | 65 | 1003.3 | |
| 20260903171030 | 62 | 186 | 0.0 | 1.0 | 0.00 | 0.00 | 0.00 | 61 | 1003.2 |
| 20260903170045 | 63 | 188 | 0.0 | 1.0 | 0.00 | 0.00 | 0.00 | 58 | 1003.2 |
| 20260903165021 | 64 | 214 | 1.0 | 2.0 | 0.00 | 0.00 | 0.00 | 57 | 1003.2 |
| 20260903164036 | 64 | 211 | 2.0 | 3.0 | 0.00 | 0.00 | 0.00 | 55 | 1003.3 |
| 20260903163031 | 65 | 242 | 3.0 | 7.0 | 0.00 | 0.00 | 0.00 | 53 | 1003.2 |
| 20260903162026 | 65 | 245 | 4.0 | 6.0 | 0.00 | 0.00 | 0.00 | 52 | 1003.3 |
| 20260903161022 | 64 | 239 | 4.0 | 6.0 | 0.00 | 0.00 | 0.00 | 52 | 1003.3 |
| 20260903160018 | 65 | 244 | 3.0 | 8.0 | 0.00 | 0.00 | 0.00 | 51 | 1003.4 |
| 20260903155033 | 64 | 245 | 3.0 | 7.0 | 0.00 | 0.00 | 0.00 | 52 | 1003.4 |
| 20260903154028 | 66 | 259 | 5.0 | 10.0 | 0.00 | 0.00 | 0.00 | 49 | 1003.3 |
| 20260903153023 | 66 | 258 | 4.0 | 8.0 | 0.00 | 0.00 | 0.00 | 49 | 1003.3 |
| 20260903152019 | 65 | 247 | 4.0 | 8.0 | 0.00 | 0.00 | 0.00 | 51 | 1003.4 |
| 20260903151055 | 64 | 224 | 3.0 | 4.0 | 0.00 | 0.00 | 0.00 | 52 | 1003.6 |
| 20260903150030 | 66 | 263 | 4.0 | 7.0 | 0.00 | 0.00 | 0.00 | 50 | 1003.4 |
| 20260903145024 | 66 | 248 | 3.0 | 6.0 | 0.00 | 0.00 | 0.00 | 50 | 1003.5 |
| 20260903144019 | 66 | 244 | 5.0 | 9.0 | 0.00 | 0.00 | 0.00 | 50 | 1003.5 |
| 20260903143034 | 66 | 252 | 6.0 | 11.0 | 0.00 | 0.00 | 0.00 | 49 | 1003.6 |
| 20260903142050 | 66 | 242 | 6.0 | 9.0 | 0.00 | 0.00 | 0.00 | 50 | 1003.6 |
| 20260903141025 | 66 | 254 | 7.0 | 11.0 | 0.00 | 0.00 | 0.00 | 49 | 1003.4 |
| 20260903140020 | 66 | 240 | 6.0 | 11.0 | 0.00 | 0.00 | 0.00 | 50 | 1003.6 |
| 20260903135036 | 67 | 229 | 3.0 | 8.0 | 0.00 | 0.00 | 0.00 | 50 | 1003.6 |
| 20260903134212 | 66 | 244 | 6.0 | 10.0 | 0.00 | 0.00 | 0.00 | 49 | 1003.6 |
| 20260903133026 | 66 | 246 | 6.0 | 11.0 | 0.00 | 0.00 | 0.00 | 50 | 1003.6 |
| 20260903132042 | 64 | 278 | 6.0 | 10.0 | 0.00 | 0.00 | 0.00 | 50 | 1003.7 |
| 20260903131037 | 64 | 260 | 2.0 | 4.0 | 0.00 | 0.00 | 0.00 | 53 | 1003.6 |
| 20260903130033 | 63 | 250 | 5.0 | 11.0 | 0.00 | 0.00 | 0.00 | 52 | 1003.6 |
| 20260903125028 | 64 | 243 | 4.0 | 10.0 | 0.00 | 0.00 | 0.00 | 53 | 1003.5 |
| 20260903124043 | 65 | 235 | 6.0 | 11.0 | 0.00 | 0.00 | 0.00 | 51 | 1003.5 |
| 20260903123018 | 65 | 240 | 4.0 | 9.0 | 0.00 | 0.00 | 0.00 | 52 | 1003.5 |
| 20260903122034 | 64 | 237 | 4.0 | 9.0 | 0.00 | 0.00 | 0.00 | 54 | 1003.6 |
| 20260903121029 | 64 | 238 | 4.0 | 8.0 | 0.00 | 0.00 | 0.00 | 53 | 1003.6 |
| 20260903120024 | 66 | 258 | 5.0 | 8.0 | 0.00 | 0.00 | 0.00 | 52 | 1003.4 |
| 20260903115020 | 65 | 245 | 6.0 | 11.0 | 0.00 | 0.00 | 0.00 | 53 | 1003.5 |
| 20260903114035 | 65 | 256 | 6.0 | 9.0 | 0.00 | 0.00 | 0.00 | 52 | 1003.6 |
| 20260903113031 | 64 | 274 | 8.0 | 14.0 | 0.00 | 0.00 | 0.00 | 51 | 1003.5 |
| 20260903112025 | 64 | 271 | 7.0 | 14.0 | 0.00 | 0.00 | 0.00 | 51 | 1003.6 |
| 20260903111020 | 64 | 248 | 5.0 | 9.0 | 0.00 | 0.00 | 0.00 | 53 | 1003.6 |
| 20260903110036 | 64 | 250 | 7.0 | 10.0 | 0.00 | 0.00 | 0.00 | 52 | 1003.7 |
| 20260903105031 | 64 | 272 | 6.0 | 10.0 | 0.00 | 0.00 | 0.00 | 52 | 1003.6 |
| 20260903104026 | 64 | 245 | 7.0 | 11.0 | 0.00 | 0.00 | 0.00 | 54 | 1003.6 |
| 20260903103101 | 64 | 237 | 6.0 | 10.0 | 0.00 | 0.00 | 0.00 | 54 | 1003.7 |